Regional Weather Roundup
Issued by NWS State College, PA

Home | Current Version | Previous Version | Graphics & Text | Print | Product List | Glossary Off
Versions: 1 2 3 4 5 6 7 8 9 10 11 12 13 14 15 16 17 18 19 20 21 22 23 24 25 26 27 28 29 30 31 32 33 34 35 36 37 38 39 40 41 42 43 44 45 46 47 48 49 50

000
ASUS41 KCTP 310810
RWRCTP

REGIONAL WEATHER ROUNDUP
NATIONAL WEATHER SERVICE STATE COLLEGE PA
300 AM EST SAT JAN 31 2015

Note: "fair" indicates few or no clouds below 12,000 feet with no
significant weather and/or obstructions to visibility.

* = STATION THAT DOES NOT REPORT PRECIPITATION /E.G. RAIN...SNOW...ETC/
    THUNDER OR FOG.

PAZ002>004-007>009-013>016-020>023-029>032-310900-
WESTERN PENNSYLVANIA

CITY           SKY/WX    TMP DP  RH WIND       PRES   REMARKS
ERIE           CLEAR     10   5  80 SW5       30.36F WCI   2
MEADVILLE      PTCLDY     6   2  83 SW5       30.30F WCI  -3
FRANKLIN*      PTCLDY     7   1  78 W3        30.30F
NEW CASTLE     FAIR       4   0  83 CALM      30.38F
BEAVER COUNTY  NOT AVBL
BUTLER*        CLEAR      7   1  78 SW3       30.35F
PITTSBURGH INT PTCLDY     7   2  80 SW3       30.35F
PITTSBURGH     CLEAR      8   1  73 W7        30.34F WCI  -3
INDIANA*       CLOUDY    12   5  73 NW7       30.34F WCI   2
LATROBE        CLEAR      9   5  85 SW7       30.38F WCI  -3
WASHINGTON CO* CLEAR      0  -2  92 CALM      30.37F
$$

PAZ004>006-010>012-017>019-024>028-033>037-041-042-045-046-049>053-310900-
CENTRAL PENNSYLVANIA

CITY           SKY/WX    TMP DP  RH WIND       PRES   REMARKS
BRADFORD       MIX PCPN   6  -1  73 NW15G24   30.19S WCI -12
DUBOIS         CLOUDY     9   3  77 NW8       30.24S WCI  -3
CLEARFIELD     MIX PCPN   8   1  73 NW8       30.26F WCI  -4
JOHNSTOWN      LGT SNOW   7   2  80 W14G24    30.19F WCI -10
ALTOONA        CLOUDY    21   3  45 NW21      30.25S WCI   5
STATE COLLEGE  FAIR       8  -1  64 W7        30.28S WCI  -3
WILLIAMSPORT   CLEAR     10  -4  53 W12       30.28R WCI  -5
SELINSGROVE    CLEAR     11  -3  53 NW13G23   30.29R WCI  -4
FT INDIANTOWN  CLEAR     12  -4  49 W12G20    30.23R WCI  -2
CAPITAL CITY   CLEAR     14  -3  47 NW21G28   30.26S WCI  -4
HARRISBURG     CLEAR     14  -2  49 NW17G26   30.26R WCI  -3
YORK           CLEAR     13  -3  49 W6        30.25S WCI   4
$$

PAZ038>040-043-044-047-048-054-055-060>062-067>071-310900-
EASTERN PENNSYLVANIA

CITY           SKY/WX    TMP DP  RH WIND       PRES   REMARKS
SCRANTON       CLOUDY    10  -2  58 NW22G32   30.16R WCI -10
MOUNT POCONO   MIX PCPN   5  -3  69 NW25G36   29.95R WCI -18
ALLENTOWN      CLEAR     12  -4  48 NW15G23   30.17R WCI  -4
QUAKERTOWN*    SUNNY     12   0  57 NW9G21    30.14R WCI   0
READING        CLEAR     12  -2  53 NW23G32   30.19R WCI  -7
LANCASTER      CLEAR     12  -2  53 NW12      30.23R WCI  -2
COATESVILLE    SUNNY     14   1  57 NW15G28   30.17R WCI  -1
POTTSTOWN      CLEAR     12  -2  53 W14G21    30.19R WCI  -3
BLUE BELL      CLEAR     16   1  53 W5G21     30.15R WCI   9
DOYLESTOWN     CLEAR     11  -2  56 NW18G28   30.13R WCI  -7
WILLOW GROVE   NOT AVBL
NORTH PHILA    CLEAR     17  -1  45 NW14G23   30.18R WCI   3
PHILADELPHIA   CLEAR     17  -2  43 NW21G29   30.20R WCI   0
$$



USA.gov is the U.S. government's official web portal to all federal, state and local government web resources and services.